Showing default

BUZZZER-1, 62609

Orbit data source: Space-Track

BUZZZER-1, 62609 is a payload satellite owned by Unseen Labs (FR) in SSO that was launched on Tue, 14 Jan 2025 UTC via an FALCON 9 launch vehicle from the Air Force Western Test Range (AFWTR). Payload-class satellites include a variety of spacecraft equipped with specific instruments for various scientific and technological missions. These include communications satellites like Starlink; space stations such as the ISS; scientific satellites like the Hubble; Earth observation satellites from companies like Planet Labs, Umbra, and HawkEye 360; GPS; miniature CubeSats for education and research; and military/defense satellites.

Loading next visibility...
Identifier
62609, 2025-009A
Orbit
SSO
Country
Flag of FRFR
Related business
Manufacturer
Unseen Labs
Mission
Operational Commercial Sigint
Bus & Motor
CUBESAT 6U, Unknown motor
Mass
~10 kg wet, ~10 kg dry
Launch date (UTC)
2025-01-14 (11 months ago)
Launch vehicle
FALCON 9
Launch site
Air Force Western Test Range (AFWTR)
Object type
Payload
Rocket body
Debris
Shape & HBR
Box + 2 Pan, 0.3 m
Radar Cross Section
0.080 m², Medium (>0.1 m² and < 1m²)

Expand to show TLE details & history
Last TLE update: 22 hours ago

TLE from 22 hours ago
0 BUZZZER-1
1 62609U 25009A   25354.68304402  .00002934  00000-0  13921-3 0  9992
2 62609  97.4108  71.1317 0006537 234.5305 125.5320 15.20038801 51560
Epoch: 2025-12-20T16:23Z
TLE epoch observation values (Epoch: 2025-12-20T16:23:35.003Z)
Latitude
-0.00007°
Longitude
95.72953°
Altitude
511.431 km
Speed
7.607 km/s
True Right ascension
04h 44m 31s
True Declination
0° 00' 00"
Sunlit
Object was in full shadow at epoch
Visualization orbit readout
Latitude
Unknown
Longitude
Unknown
Altitude
Unknown
Speed
Unknown
Apparent Right ascension
Unknown
Apparent Declination
Unknown
Sunlit
N/A
Visualization observer readout
Local Sidereal Time
12:56:12
Azimuth
Unknown
Elevation
Unknown
Doppler factor
Unknown
Orbital elements
Apogee altitude
507.187 km
Perigee altitude
498.191 km
Semi-major axis
6,880.826 km
Eccentricity
0.00065
Inclination
97.4108°
RAAN
71.1317°
Arg. of periapsis
234.5305°
True anomaly
125.59293°
Mean anomaly
125.532°
Eccentric anomaly
125.56247°
Mean motion
3.80261 °/min
Orbital period
94.67 mins
BSTAR
0.00013921
Loading maneuver chart data...
Computing Atmospheric mass density...
Loading historical data...
Loading historical data...
Loading historical data...
Loading historical data...
Loading historical data...
Loading historical data...
Loading historical data...

Documentation

Showing up to 5 results
|